Time,TemperatureF,DewpointF,PressureIn,WindDirection,WindDirectionDegrees,WindSpeedMPH,WindSpeedGustMPH,Humidity,HourlyPrecipIn,Conditions,Clouds,dailyrainin,SoftwareType,DateUTC
2013-01-13 00:05:00,44.2,34.7,29.87,North,0,5.0,12.0,69,0.00,,,0.00,Wunderground v.1.15,2013-01-13 06:05:00,
2013-01-13 00:10:00,44.1,34.6,29.87,NNW,343,7.0,7.0,69,0.00,,,0.00,Wunderground v.1.15,2013-01-13 06:10:00,
2013-01-13 00:20:00,43.8,34.3,29.88,NNW,347,8.0,8.0,69,0.00,,,0.00,Wunderground v.1.15,2013-01-13 06:20:00,
2013-01-13 00:25:00,43.5,33.3,29.88,North,359,7.0,12.0,67,0.00,,,0.00,Wunderground v.1.15,2013-01-13 06:25:00,
2013-01-13 00:35:00,43.1,32.9,29.88,NNW,339,9.0,9.0,67,0.00,,,0.00,Wunderground v.1.15,2013-01-13 06:35:00,
2013-01-13 00:40:00,42.9,33.4,29.89,NNW,347,6.0,7.0,69,0.00,,,0.00,Wunderground v.1.15,2013-01-13 06:40:00,
2013-01-13 00:50:00,42.6,33.1,29.89,NNW,337,8.0,10.0,69,0.00,,,0.00,Wunderground v.1.15,2013-01-13 06:50:00,
2013-01-13 00:55:00,42.5,33.0,29.88,North,0,8.0,10.0,69,0.00,,,0.00,Wunderground v.1.15,2013-01-13 06:55:00,
2013-01-13 01:05:00,42.2,32.8,29.89,NNW,344,9.0,10.0,69,0.00,,,0.00,Wunderground v.1.15,2013-01-13 07:05:00,
2013-01-13 01:10:00,42.1,32.7,29.89,NW,318,7.0,10.0,69,0.00,,,0.00,Wunderground v.1.15,2013-01-13 07:10:00,
2013-01-13 01:20:00,41.9,32.8,29.90,NW,312,7.0,7.0,70,0.00,,,0.00,Wunderground v.1.15,2013-01-13 07:20:00,
2013-01-13 01:25:00,41.8,33.1,29.89,NW,319,9.0,16.0,71,0.00,,,0.00,Wunderground v.1.15,2013-01-13 07:25:00,
2013-01-13 01:35:00,41.5,33.1,29.90,North,357,8.0,11.0,72,0.00,,,0.00,Wunderground v.1.15,2013-01-13 07:35:00,
2013-01-13 01:40:00,41.3,32.6,29.90,NNW,333,7.0,8.0,71,0.00,,,0.00,Wunderground v.1.15,2013-01-13 07:40:00,
2013-01-13 01:50:00,41.1,32.8,29.91,NNW,339,9.0,12.0,72,0.00,,,0.00,Wunderground v.1.15,2013-01-13 07:50:00,
2013-01-13 01:56:00,41.1,33.1,29.90,NW,322,7.0,15.0,73,0.00,,,0.00,Wunderground v.1.15,2013-01-13 07:56:00,
2013-01-13 02:05:00,40.9,32.6,29.91,NNW,332,7.0,10.0,72,0.00,,,0.00,Wunderground v.1.15,2013-01-13 08:05:00,
2013-01-13 02:10:00,40.6,32.6,29.91,NW,319,8.0,8.0,73,0.00,,,0.00,Wunderground v.1.15,2013-01-13 08:10:00,
2013-01-13 02:20:00,40.5,32.2,29.91,NNW,342,8.0,9.0,72,0.00,,,0.00,Wunderground v.1.15,2013-01-13 08:20:00,
2013-01-13 02:25:00,40.5,32.5,29.92,NW,325,8.0,19.0,73,0.00,,,0.00,Wunderground v.1.15,2013-01-13 08:25:00,
2013-01-13 02:35:00,40.3,32.0,29.92,NNW,346,11.0,11.0,72,0.00,,,0.00,Wunderground v.1.15,2013-01-13 08:35:00,
2013-01-13 02:40:00,40.2,31.5,29.92,NW,325,10.0,10.0,71,0.00,,,0.00,Wunderground v.1.15,2013-01-13 08:40:00,
2013-01-13 02:50:00,40.1,31.8,29.93,NNW,328,8.0,11.0,72,0.00,,,0.00,Wunderground v.1.15,2013-01-13 08:50:00,
2013-01-13 02:55:00,40.1,31.4,29.93,NNW,333,8.0,11.0,71,0.00,,,0.00,Wunderground v.1.15,2013-01-13 08:55:00,
2013-01-13 03:05:00,40.1,31.8,29.94,NNW,343,7.0,9.0,72,0.00,,,0.00,Wunderground v.1.15,2013-01-13 09:05:00,
2013-01-13 03:10:00,40.2,31.9,29.93,North,353,5.0,5.0,72,0.00,,,0.00,Wunderground v.1.15,2013-01-13 09:10:00,
2013-01-13 03:20:00,40.1,31.4,29.94,NW,319,7.0,10.0,71,0.00,,,0.00,Wunderground v.1.15,2013-01-13 09:20:00,
2013-01-13 03:25:00,40.1,31.4,29.95,NNW,342,8.0,10.0,71,0.00,,,0.00,Wunderground v.1.15,2013-01-13 09:25:00,
2013-01-13 03:35:00,39.9,31.3,29.94,NNW,336,8.0,8.0,71,0.00,,,0.00,Wunderground v.1.15,2013-01-13 09:35:00,
2013-01-13 03:40:00,39.9,30.9,29.94,NNW,337,8.0,8.0,70,0.00,,,0.00,Wunderground v.1.15,2013-01-13 09:40:00,
2013-01-13 03:50:00,39.8,31.2,29.94,NNW,330,7.0,10.0,71,0.00,,,0.00,Wunderground v.1.15,2013-01-13 09:50:00,
2013-01-13 03:55:00,39.6,31.0,29.95,North,359,9.0,10.0,71,0.00,,,0.00,Wunderground v.1.15,2013-01-13 09:55:00,
2013-01-13 04:05:00,39.3,30.3,29.94,West,264,10.0,14.0,70,0.00,,,0.00,Wunderground v.1.15,2013-01-13 10:05:00,
2013-01-13 04:10:00,39.3,30.3,29.94,North,349,9.0,16.0,70,0.00,,,0.00,Wunderground v.1.15,2013-01-13 10:10:00,
2013-01-13 04:20:00,39.2,29.9,29.95,NW,322,8.0,13.0,69,0.00,,,0.00,Wunderground v.1.15,2013-01-13 10:20:00,
2013-01-13 04:25:00,39.1,30.1,29.95,North,349,9.0,13.0,70,0.00,,,0.00,Wunderground v.1.15,2013-01-13 10:25:00,
2013-01-13 04:35:00,39.1,29.8,29.95,NNW,343,8.0,9.0,69,0.00,,,0.00,Wunderground v.1.15,2013-01-13 10:35:00,
2013-01-13 04:40:00,39.1,29.8,29.95,NW,312,8.0,13.0,69,0.00,,,0.00,Wunderground v.1.15,2013-01-13 10:40:00,
2013-01-13 04:50:00,39.1,29.8,29.96,NW,323,7.0,7.0,69,0.00,,,0.00,Wunderground v.1.15,2013-01-13 10:50:00,
2013-01-13 04:55:00,38.9,29.6,29.96,NNW,346,9.0,9.0,69,0.00,,,0.00,Wunderground v.1.15,2013-01-13 10:55:00,
2013-01-13 05:05:00,38.9,29.6,29.96,NW,320,7.0,14.0,69,0.00,,,0.00,Wunderground v.1.15,2013-01-13 11:05:00,
2013-01-13 05:10:00,38.9,29.6,29.96,NW,309,7.0,11.0,69,0.00,,,0.00,Wunderground v.1.15,2013-01-13 11:10:00,
2013-01-13 05:20:00,38.6,28.9,29.97,WNW,296,9.0,9.0,68,0.00,,,0.00,Wunderground v.1.15,2013-01-13 11:20:00,
2013-01-13 05:25:00,38.5,29.2,29.96,NNW,330,7.0,14.0,69,0.00,,,0.00,Wunderground v.1.15,2013-01-13 11:25:00,
2013-01-13 05:35:00,38.5,28.9,29.96,North,356,10.0,11.0,68,0.00,,,0.00,Wunderground v.1.15,2013-01-13 11:35:00,
2013-01-13 05:40:00,38.3,28.3,29.97,NW,315,10.0,10.0,67,0.00,,,0.00,Wunderground v.1.15,2013-01-13 11:40:00,
2013-01-13 05:50:00,38.2,28.2,29.98,NNW,336,8.0,16.0,67,0.00,,,0.00,Wunderground v.1.15,2013-01-13 11:50:00,
2013-01-13 05:55:00,38.2,28.6,29.98,North,356,8.0,16.0,68,0.00,,,0.00,Wunderground v.1.15,2013-01-13 11:55:00,
2013-01-13 06:05:00,38.2,28.2,29.98,NNW,346,6.0,7.0,67,0.00,,,0.00,Wunderground v.1.15,2013-01-13 12:05:00,
2013-01-13 06:10:00,38.2,28.6,30.00,NNW,328,4.0,4.0,68,0.00,,,0.00,Wunderground v.1.15,2013-01-13 12:10:00,
2013-01-13 06:20:00,37.9,28.6,30.01,NW,304,7.0,7.0,69,0.00,,,0.00,Wunderground v.1.15,2013-01-13 12:20:00,
2013-01-13 06:25:00,37.9,28.6,30.01,NNW,328,6.0,7.0,69,0.00,,,0.00,Wunderground v.1.15,2013-01-13 12:25:00,
2013-01-13 06:35:00,37.8,28.2,30.02,NW,315,8.0,9.0,68,0.00,,,0.00,Wunderground v.1.15,2013-01-13 12:35:00,
2013-01-13 06:40:00,37.6,28.3,30.02,North,359,8.0,8.0,69,0.00,,,0.00,Wunderground v.1.15,2013-01-13 12:40:00,
2013-01-13 06:50:00,37.5,27.9,30.03,NNW,342,7.0,12.0,68,0.00,,,0.00,Wunderground v.1.15,2013-01-13 12:50:00,
2013-01-13 06:55:00,37.3,27.7,30.03,North,352,8.0,12.0,68,0.00,,,0.00,Wunderground v.1.15,2013-01-13 12:55:00,
2013-01-13 07:05:00,37.2,28.0,30.04,North,352,5.0,11.0,69,0.00,,,0.00,Wunderground v.1.15,2013-01-13 13:05:00,
2013-01-13 07:10:00,37.0,27.4,30.05,NNW,332,8.0,8.0,68,0.00,,,0.00,Wunderground v.1.15,2013-01-13 13:10:00,
2013-01-13 07:20:00,37.0,27.4,30.06,North,357,8.0,8.0,68,0.00,,,0.00,Wunderground v.1.15,2013-01-13 13:20:00,
2013-01-13 07:25:00,37.0,27.8,30.06,WNW,294,8.0,10.0,69,0.00,,,0.00,Wunderground v.1.15,2013-01-13 13:25:00,
2013-01-13 07:35:00,37.0,27.4,30.07,North,0,5.0,6.0,68,0.00,,,0.00,Wunderground v.1.15,2013-01-13 13:35:00,
2013-01-13 07:40:00,37.0,27.4,30.07,NNW,328,6.0,6.0,68,0.00,,,0.00,Wunderground v.1.15,2013-01-13 13:40:00,
2013-01-13 07:50:00,37.0,27.4,30.08,NNW,339,6.0,6.0,68,0.00,,,0.00,Wunderground v.1.15,2013-01-13 13:50:00,
2013-01-13 07:55:00,37.0,27.8,30.08,NNW,337,7.0,7.0,69,0.00,,,0.00,Wunderground v.1.15,2013-01-13 13:55:00,
2013-01-13 08:05:00,36.9,27.3,30.09,NW,323,9.0,13.0,68,0.00,,,0.00,Wunderground v.1.15,2013-01-13 14:05:00,
2013-01-13 08:10:00,36.9,27.0,30.10,NNW,342,8.0,16.0,67,0.00,,,0.00,Wunderground v.1.15,2013-01-13 14:10:00,
2013-01-13 08:20:00,36.8,27.2,30.10,NW,313,9.0,10.0,68,0.00,,,0.00,Wunderground v.1.15,2013-01-13 14:20:00,
2013-01-13 08:25:00,36.8,27.6,30.10,NW,323,9.0,10.0,69,0.00,,,0.00,Wunderground v.1.15,2013-01-13 14:25:00,
2013-01-13 08:35:00,36.8,27.2,30.11,NNW,343,7.0,7.0,68,0.00,,,0.00,Wunderground v.1.15,2013-01-13 14:35:00,
2013-01-13 08:40:00,36.6,26.3,30.11,North,350,9.0,9.0,66,0.00,,,0.00,Wunderground v.1.15,2013-01-13 14:40:00,
2013-01-13 08:50:00,36.5,26.9,30.11,NW,325,7.0,12.0,68,0.00,,,0.00,Wunderground v.1.15,2013-01-13 14:50:00,
2013-01-13 08:55:00,36.6,26.7,30.12,NNW,335,7.0,12.0,67,0.00,,,0.00,Wunderground v.1.15,2013-01-13 14:55:00,
2013-01-13 09:05:00,36.9,27.0,30.13,NNW,343,8.0,17.0,67,0.00,,,0.00,Wunderground v.1.15,2013-01-13 15:05:00,
2013-01-13 09:10:00,37.0,27.1,30.13,North,357,8.0,11.0,67,0.00,,,0.00,Wunderground v.1.15,2013-01-13 15:10:00,
2013-01-13 09:20:00,37.0,26.7,30.14,WNW,294,7.0,7.0,66,0.00,,,0.00,Wunderground v.1.15,2013-01-13 15:20:00,
2013-01-13 09:25:00,37.3,26.6,30.14,North,357,7.0,10.0,65,0.00,,,0.00,Wunderground v.1.15,2013-01-13 15:25:00,
2013-01-13 09:35:00,37.6,27.3,30.14,NW,318,5.0,8.0,66,0.00,,,0.00,Wunderground v.1.15,2013-01-13 15:35:00,
2013-01-13 09:40:00,37.5,26.0,30.14,North,0,4.0,10.0,63,0.00,,,0.00,Wunderground v.1.15,2013-01-13 15:40:00,
2013-01-13 09:50:00,37.8,27.5,30.15,North,357,6.0,11.0,66,0.00,,,0.00,Wunderground v.1.15,2013-01-13 15:50:00,
2013-01-13 09:55:00,37.8,26.3,30.15,NNW,333,7.0,11.0,63,0.00,,,0.00,Wunderground v.1.15,2013-01-13 15:55:00,
2013-01-13 10:05:00,38.0,26.9,30.15,NNW,340,9.0,9.0,64,0.00,,,0.00,Wunderground v.1.15,2013-01-13 16:05:00,
2013-01-13 10:10:00,38.0,26.5,30.16,NW,322,9.0,9.0,63,0.00,,,0.00,Wunderground v.1.15,2013-01-13 16:10:00,
2013-01-13 10:20:00,37.9,26.4,30.16,North,353,9.0,9.0,63,0.00,,,0.00,Wunderground v.1.15,2013-01-13 16:20:00,
2013-01-13 10:25:00,38.5,27.0,30.16,NW,315,8.0,9.0,63,0.00,,,0.00,Wunderground v.1.15,2013-01-13 16:25:00,
2013-01-13 10:35:00,39.3,26.2,30.15,North,349,7.0,12.0,59,0.00,,,0.00,Wunderground v.1.15,2013-01-13 16:35:00,
2013-01-13 10:40:00,39.9,26.7,30.16,North,350,6.0,6.0,59,0.00,,,0.00,Wunderground v.1.15,2013-01-13 16:40:00,
2013-01-13 10:50:00,40.8,28.0,30.15,North,349,6.0,6.0,60,0.00,,,0.00,Wunderground v.1.15,2013-01-13 16:50:00,
2013-01-13 10:55:00,41.5,27.4,30.15,NNE,14,5.0,6.0,57,0.00,,,0.00,Wunderground v.1.15,2013-01-13 16:55:00,
2013-01-13 11:05:00,42.3,28.6,30.15,NW,316,8.0,8.0,58,0.00,,,0.00,Wunderground v.1.15,2013-01-13 17:05:00,
2013-01-13 11:10:00,43.2,28.5,30.15,North,349,6.0,12.0,56,0.00,,,0.00,Wunderground v.1.15,2013-01-13 17:10:00,
2013-01-13 11:20:00,43.2,28.5,30.15,NNW,346,10.0,10.0,56,0.00,,,0.00,Wunderground v.1.15,2013-01-13 17:20:00,
2013-01-13 11:25:00,43.5,28.8,30.14,North,354,9.0,16.0,56,0.00,,,0.00,Wunderground v.1.15,2013-01-13 17:25:00,
2013-01-13 11:35:00,44.1,28.0,30.14,North,350,9.0,17.0,53,0.00,,,0.00,Wunderground v.1.15,2013-01-13 17:35:00,
2013-01-13 11:40:00,44.1,28.5,30.14,NNW,347,9.0,9.0,54,0.00,,,0.00,Wunderground v.1.15,2013-01-13 17:40:00,
2013-01-13 11:50:00,44.8,28.2,30.13,North,0,7.0,7.0,52,0.00,,,0.00,Wunderground v.1.15,2013-01-13 17:50:00,
2013-01-13 11:55:00,44.9,29.7,30.13,NW,326,8.0,8.0,55,0.00,,,0.00,Wunderground v.1.15,2013-01-13 17:55:00,
2013-01-13 12:05:00,45.8,30.5,30.12,North,0,7.0,8.0,55,0.00,,,0.00,Wunderground v.1.15,2013-01-13 18:05:00,
2013-01-13 12:10:00,46.5,30.3,30.11,NNE,13,7.0,13.0,53,0.00,,,0.00,Wunderground v.1.15,2013-01-13 18:10:00,
2013-01-13 12:20:00,45.7,29.5,30.11,North,349,8.0,8.0,53,0.00,,,0.00,Wunderground v.1.15,2013-01-13 18:20:00,
2013-01-13 12:25:00,46.0,29.8,30.11,North,359,8.0,8.0,53,0.00,,,0.00,Wunderground v.1.15,2013-01-13 18:25:00,
2013-01-13 12:35:00,46.8,30.6,30.10,NW,326,9.0,10.0,53,0.00,,,0.00,Wunderground v.1.15,2013-01-13 18:35:00,
2013-01-13 12:40:00,47.4,30.6,30.10,NNW,340,8.0,8.0,52,0.00,,,0.00,Wunderground v.1.15,2013-01-13 18:40:00,
2013-01-13 12:50:00,47.7,30.0,30.10,North,0,7.0,7.0,50,0.00,,,0.00,Wunderground v.1.15,2013-01-13 18:50:00,
2013-01-13 12:55:00,48.2,31.9,30.09,NW,326,6.0,9.0,53,0.00,,,0.00,Wunderground v.1.15,2013-01-13 18:55:00,
2013-01-13 13:05:00,48.2,30.9,30.09,North,0,7.0,12.0,51,0.00,,,0.00,Wunderground v.1.15,2013-01-13 19:05:00,
2013-01-13 13:10:00,48.2,31.4,30.09,NNW,339,8.0,8.0,52,0.00,,,0.00,Wunderground v.1.15,2013-01-13 19:10:00,
2013-01-13 13:20:00,49.1,32.7,30.09,NW,306,6.0,13.0,53,0.00,,,0.00,Wunderground v.1.15,2013-01-13 19:20:00,
2013-01-13 13:25:00,48.9,31.5,30.09,NNW,329,7.0,13.0,51,0.00,,,0.00,Wunderground v.1.15,2013-01-13 19:25:00,
2013-01-13 13:35:00,49.1,32.2,30.08,NNE,24,7.0,8.0,52,0.00,,,0.00,Wunderground v.1.15,2013-01-13 19:35:00,
2013-01-13 13:40:00,49.1,31.7,30.09,North,1,7.0,11.0,51,0.00,,,0.00,Wunderground v.1.15,2013-01-13 19:40:00,
2013-01-13 13:50:00,48.9,31.5,30.09,North,359,7.0,11.0,51,0.00,,,0.00,Wunderground v.1.15,2013-01-13 19:50:00,
2013-01-13 13:55:00,49.2,31.8,30.08,NNW,344,4.0,11.0,51,0.00,,,0.00,Wunderground v.1.15,2013-01-13 19:55:00,
2013-01-13 14:05:00,49.5,33.1,30.08,North,0,3.0,6.0,53,0.00,,,0.00,Wunderground v.1.15,2013-01-13 20:05:00,
2013-01-13 14:10:00,49.2,32.3,30.08,NNW,342,5.0,11.0,52,0.00,,,0.00,Wunderground v.1.15,2013-01-13 20:10:00,
2013-01-13 14:20:00,49.8,32.9,30.08,NNW,328,6.0,6.0,52,0.00,,,0.00,Wunderground v.1.15,2013-01-13 20:20:00,
2013-01-13 14:25:00,50.2,32.3,30.07,North,357,4.0,16.0,50,0.00,,,0.00,Wunderground v.1.15,2013-01-13 20:25:00,
2013-01-13 14:35:00,49.6,32.7,30.08,North,7,8.0,8.0,52,0.00,,,0.00,Wunderground v.1.15,2013-01-13 20:35:00,
2013-01-13 14:40:00,49.2,32.8,30.08,NNW,336,6.0,8.0,53,0.00,,,0.00,Wunderground v.1.15,2013-01-13 20:40:00,
2013-01-13 14:50:00,49.5,32.1,30.09,North,0,7.0,7.0,51,0.00,,,0.00,Wunderground v.1.15,2013-01-13 20:50:00,
2013-01-13 14:55:00,49.5,32.1,30.08,North,352,5.0,7.0,51,0.00,,,0.00,Wunderground v.1.15,2013-01-13 20:55:00,
2013-01-13 15:05:00,49.6,31.7,30.08,NNE,20,4.0,7.0,50,0.00,,,0.00,Wunderground v.1.15,2013-01-13 21:05:00,
2013-01-13 15:10:00,49.5,31.1,30.08,North,359,5.0,5.0,49,0.00,,,0.00,Wunderground v.1.15,2013-01-13 21:10:00,
2013-01-13 15:20:00,49.4,31.5,30.09,North,10,5.0,5.0,50,0.00,,,0.00,Wunderground v.1.15,2013-01-13 21:20:00,
2013-01-13 15:25:00,49.1,31.7,30.09,North,353,5.0,7.0,51,0.00,,,0.00,Wunderground v.1.15,2013-01-13 21:25:00,
2013-01-13 15:35:00,48.8,31.0,30.09,NNW,339,7.0,7.0,50,0.00,,,0.00,Wunderground v.1.15,2013-01-13 21:35:00,
2013-01-13 15:40:00,48.5,31.2,30.09,North,0,8.0,10.0,51,0.00,,,0.00,Wunderground v.1.15,2013-01-13 21:40:00,
2013-01-13 15:50:00,48.5,30.7,30.08,NE,34,6.0,6.0,50,0.00,,,0.00,Wunderground v.1.15,2013-01-13 21:50:00,
2013-01-13 15:55:00,48.5,30.7,30.09,North,353,5.0,6.0,50,0.00,,,0.00,Wunderground v.1.15,2013-01-13 21:55:00,
2013-01-13 16:05:00,47.9,29.6,30.10,North,8,5.0,5.0,49,0.00,,,0.00,Wunderground v.1.15,2013-01-13 22:05:00,
2013-01-13 16:10:00,47.6,29.9,30.09,NNE,17,6.0,6.0,50,0.00,,,0.00,Wunderground v.1.15,2013-01-13 22:10:00,
2013-01-13 16:20:00,47.3,29.1,30.10,NNE,30,4.0,4.0,49,0.00,,,0.00,Wunderground v.1.15,2013-01-13 22:20:00,
2013-01-13 16:25:00,47.1,29.9,30.10,NNE,18,5.0,10.0,51,0.00,,,0.00,Wunderground v.1.15,2013-01-13 22:25:00,
2013-01-13 16:35:00,46.8,28.6,30.10,North,0,5.0,5.0,49,0.00,,,0.00,Wunderground v.1.15,2013-01-13 22:35:00,
2013-01-13 16:40:00,46.7,29.0,30.10,North,1,6.0,6.0,50,0.00,,,0.00,Wunderground v.1.15,2013-01-13 22:40:00,
2013-01-13 16:50:00,46.5,28.8,30.10,North,0,5.0,5.0,50,0.00,,,0.00,Wunderground v.1.15,2013-01-13 22:50:00,
2013-01-13 16:55:00,46.4,29.7,30.10,North,0,5.0,5.0,52,0.00,,,0.00,Wunderground v.1.15,2013-01-13 22:55:00,
2013-01-13 17:05:00,46.2,28.6,30.11,North,0,1.0,10.0,50,0.00,,,0.00,Wunderground v.1.15,2013-01-13 23:05:00,
2013-01-13 17:10:00,46.1,29.0,30.12,North,350,2.0,2.0,51,0.00,,,0.00,Wunderground v.1.15,2013-01-13 23:10:00,
2013-01-13 17:20:00,45.7,28.1,30.12,North,1,1.0,1.0,50,0.00,,,0.00,Wunderground v.1.15,2013-01-13 23:20:00,
2013-01-13 17:25:00,45.5,28.4,30.12,NNE,14,1.0,1.0,51,0.00,,,0.00,Wunderground v.1.15,2013-01-13 23:25:00,
2013-01-13 17:35:00,45.1,28.5,30.12,NNE,14,0.0,1.0,52,0.00,,,0.00,Wunderground v.1.15,2013-01-13 23:35:00,
2013-01-13 17:40:00,44.9,29.2,30.12,NNE,13,0.0,1.0,54,0.00,,,0.00,Wunderground v.1.15,2013-01-13 23:40:00,
2013-01-13 17:50:00,44.3,29.1,30.12,North,7,0.0,0.0,55,0.00,,,0.00,Wunderground v.1.15,2013-01-13 23:50:00,
2013-01-13 17:55:00,44.1,28.5,30.12,North,7,0.0,0.0,54,0.00,,,0.00,Wunderground v.1.15,2013-01-13 23:55:00,
2013-01-13 18:05:00,43.6,29.8,30.13,North,7,0.0,0.0,58,0.00,,,0.00,Wunderground v.1.15,2013-01-14 00:05:00,
2013-01-13 18:10:00,43.3,29.5,30.13,North,6,0.0,0.0,58,0.00,,,0.00,Wunderground v.1.15,2013-01-14 00:10:00,
2013-01-13 18:20:00,42.9,28.3,30.13,North,4,0.0,0.0,56,0.00,,,0.00,Wunderground v.1.15,2013-01-14 00:20:00,
2013-01-13 18:25:00,42.6,29.3,30.13,North,4,0.0,0.0,59,0.00,,,0.00,Wunderground v.1.15,2013-01-14 00:25:00,
2013-01-13 18:35:00,42.5,28.8,30.14,North,4,0.0,0.0,58,0.00,,,0.00,Wunderground v.1.15,2013-01-14 00:35:00,
2013-01-13 18:40:00,42.1,28.4,30.14,North,4,0.0,0.0,58,0.00,,,0.00,Wunderground v.1.15,2013-01-14 00:40:00,
2013-01-13 18:50:00,41.8,28.5,30.14,North,4,0.0,0.0,59,0.00,,,0.00,Wunderground v.1.15,2013-01-14 00:50:00,
2013-01-13 18:55:00,41.5,28.2,30.14,North,4,0.0,0.0,59,0.00,,,0.00,Wunderground v.1.15,2013-01-14 00:55:00,
2013-01-13 19:05:00,41.1,28.3,30.14,North,4,0.0,1.0,60,0.00,,,0.00,Wunderground v.1.15,2013-01-14 01:05:00,
2013-01-13 19:10:00,40.9,28.9,30.14,North,4,0.0,0.0,62,0.00,,,0.00,Wunderground v.1.15,2013-01-14 01:10:00,
2013-01-13 19:20:00,40.5,28.5,30.15,North,4,0.0,0.0,62,0.00,,,0.00,Wunderground v.1.15,2013-01-14 01:20:00,
2013-01-13 19:25:00,40.1,28.5,30.15,North,4,0.0,0.0,63,0.00,,,0.00,Wunderground v.1.15,2013-01-14 01:25:00,
2013-01-13 19:35:00,39.6,28.4,30.15,North,4,0.0,0.0,64,0.00,,,0.00,Wunderground v.1.15,2013-01-14 01:35:00,
2013-01-13 19:40:00,39.5,27.9,30.16,North,6,0.0,0.0,63,0.00,,,0.00,Wunderground v.1.15,2013-01-14 01:40:00,
2013-01-13 19:50:00,39.5,27.9,30.17,North,4,0.0,0.0,63,0.00,,,0.00,Wunderground v.1.15,2013-01-14 01:50:00,
2013-01-13 19:55:00,39.5,27.9,30.17,North,4,0.0,0.0,63,0.00,,,0.00,Wunderground v.1.15,2013-01-14 01:55:00,
2013-01-13 20:05:00,39.3,27.7,30.17,North,7,0.0,0.0,63,0.00,,,0.00,Wunderground v.1.15,2013-01-14 02:05:00,
2013-01-13 20:10:00,39.3,28.1,30.17,North,7,0.0,0.0,64,0.00,,,0.00,Wunderground v.1.15,2013-01-14 02:10:00,
2013-01-13 20:20:00,39.2,27.7,30.17,North,6,0.0,1.0,63,0.00,,,0.00,Wunderground v.1.15,2013-01-14 02:20:00,
2013-01-13 20:25:00,39.1,27.2,30.17,North,3,0.0,1.0,62,0.00,,,0.00,Wunderground v.1.15,2013-01-14 02:25:00,
2013-01-13 20:35:00,38.9,27.4,30.17,North,3,0.0,0.0,63,0.00,,,0.00,Wunderground v.1.15,2013-01-14 02:35:00,
2013-01-13 20:40:00,38.9,27.0,30.17,North,4,1.0,1.0,62,0.00,,,0.00,Wunderground v.1.15,2013-01-14 02:40:00,
2013-01-13 20:50:00,38.8,26.9,30.17,North,4,0.0,0.0,62,0.00,,,0.00,Wunderground v.1.15,2013-01-14 02:50:00,
2013-01-13 20:55:00,38.6,27.1,30.18,North,4,0.0,0.0,63,0.00,,,0.00,Wunderground v.1.15,2013-01-14 02:55:00,
2013-01-13 21:05:00,38.3,26.8,30.17,North,3,0.0,0.0,63,0.00,,,0.00,Wunderground v.1.15,2013-01-14 03:05:00,
2013-01-13 21:10:00,38.2,26.3,30.18,North,1,0.0,0.0,62,0.00,,,0.00,Wunderground v.1.15,2013-01-14 03:10:00,
2013-01-13 21:20:00,38.0,26.1,30.18,North,0,1.0,1.0,62,0.00,,,0.00,Wunderground v.1.15,2013-01-14 03:20:00,
2013-01-13 21:25:00,38.0,26.1,30.18,North,0,3.0,11.0,62,0.00,,,0.00,Wunderground v.1.15,2013-01-14 03:25:00,
2013-01-13 21:35:00,37.9,26.8,30.17,North,359,1.0,3.0,64,0.00,,,0.00,Wunderground v.1.15,2013-01-14 03:35:00,
2013-01-13 21:40:00,37.6,26.5,30.18,North,0,0.0,0.0,64,0.00,,,0.00,Wunderground v.1.15,2013-01-14 03:40:00,
2013-01-13 21:50:00,37.3,26.6,30.19,North,0,0.0,0.0,65,0.00,,,0.00,Wunderground v.1.15,2013-01-14 03:50:00,
2013-01-13 21:55:00,37.2,26.5,30.18,North,0,0.0,5.0,65,0.00,,,0.00,Wunderground v.1.15,2013-01-14 03:55:00,
2013-01-13 22:05:00,36.9,26.2,30.17,North,359,2.0,2.0,65,0.00,,,0.00,Wunderground v.1.15,2013-01-14 04:05:00,
2013-01-13 22:10:00,36.8,26.5,30.17,North,357,0.0,1.0,66,0.00,,,0.00,Wunderground v.1.15,2013-01-14 04:10:00,
2013-01-13 22:20:00,36.5,25.8,30.17,North,359,4.0,4.0,65,0.00,,,0.00,Wunderground v.1.15,2013-01-14 04:20:00,
2013-01-13 22:25:00,36.3,26.0,30.17,North,0,2.0,4.0,66,0.00,,,0.00,Wunderground v.1.15,2013-01-14 04:25:00,
2013-01-13 22:35:00,36.2,25.6,30.17,North,0,1.0,1.0,65,0.00,,,0.00,Wunderground v.1.15,2013-01-14 04:35:00,
2013-01-13 22:40:00,36.0,25.4,30.17,North,0,2.0,3.0,65,0.00,,,0.00,Wunderground v.1.15,2013-01-14 04:40:00,
2013-01-13 22:50:00,35.9,25.6,30.17,North,3,2.0,2.0,66,0.00,,,0.00,Wunderground v.1.15,2013-01-14 04:50:00,
2013-01-13 22:55:00,35.6,25.4,30.17,North,0,0.0,2.0,66,0.00,,,0.00,Wunderground v.1.15,2013-01-14 04:55:00,
2013-01-13 23:05:00,35.5,25.3,30.17,North,0,2.0,5.0,66,0.00,,,0.00,Wunderground v.1.15,2013-01-14 05:05:00,
2013-01-13 23:10:00,35.3,25.1,30.17,North,0,1.0,1.0,66,0.00,,,0.00,Wunderground v.1.15,2013-01-14 05:10:00,
2013-01-13 23:15:00,35.2,25.3,30.17,North,0,0.0,1.0,67,0.00,,,0.00,Wunderground v.1.15,2013-01-14 05:15:00,
2013-01-13 23:20:00,35.0,24.4,30.17,NNE,13,2.0,5.0,65,0.00,,,0.00,Wunderground v.1.15,2013-01-14 05:20:00,
2013-01-13 23:25:00,35.0,24.8,30.17,North,356,3.0,5.0,66,0.00,,,0.00,Wunderground v.1.15,2013-01-14 05:25:00,
2013-01-13 23:35:00,34.7,24.5,30.17,North,0,3.0,3.0,66,0.00,,,0.00,Wunderground v.1.15,2013-01-14 05:35:00,
2013-01-13 23:40:00,34.6,24.4,30.16,North,359,3.0,7.0,66,0.00,,,0.00,Wunderground v.1.15,2013-01-14 05:40:00,
2013-01-13 23:50:00,34.4,23.8,30.16,NNE,18,6.0,6.0,65,0.00,,,0.00,Wunderground v.1.15,2013-01-14 05:50:00,
2013-01-13 23:55:00,34.4,23.8,30.16,North,359,5.0,6.0,65,0.00,,,0.00,Wunderground v.1.15,2013-01-14 05:55:00,